SL-14 DEB, 47089

Orbit data source: Space-Track

SL-14 DEB, 47089 is space debris in LEO originally from a launch on Thu, 15 Aug 1991 UTC launched from the Plesetsk Missile And Space Complex (PKMTR). Debris objects in space refer to the collection of defunct objects orbiting the Earth. Examples of debris include non-operational satellites, rocket bodies, and fragments generated from explosions, collisions, or faulty payload assembly.

Loading next visibility...
Identifier
47089, 1991-056DP
Orbit
LEO
Country
Flag of CISCIS
Related business
Manufacturer
Unknown
Mission
Spacecraft
Bus & Motor
Unknown
Mass
Unknown
Launch date (UTC)
1991-08-15 (34 years ago)
Launch vehicle
Unknown
Launch site
Plesetsk Missile And Space Complex (PKMTR)
Object type
Payload
Rocket body
Debris
Shape & HBR
Unknown shape, 0.1 m
Radar Cross Section
Small (<0.1 m²)

Expand to show TLE details & history
Last TLE update: 2 days ago

TLE from 2 days ago
0 SL-14 DEB
1 47089U 91056DP  26036.11258615  .00000093  00000-0  13802-3 0  9994
2 47089  82.6022 183.0039 0186432 219.2413 139.5086 13.38378447256711
Epoch: 2026-02-05T02:42Z
TLE epoch observation values (Epoch: 2026-02-05T02:42:07.443Z)
Latitude
0.00001°
Longitude
7.2034°
Altitude
1,225.504 km
Speed
7.19 km/s
True Right ascension
12h 12m 00s
True Declination
0° 00' 00"
Sunlit
Object was in full shadow at epoch
Visualization orbit readout
Latitude
Unknown
Longitude
Unknown
Altitude
Unknown
Speed
Unknown
Apparent Right ascension
Unknown
Apparent Declination
Unknown
Sunlit
N/A
Visualization observer readout
Local Sidereal Time
12:10:40
Azimuth
Unknown
Elevation
Unknown
Doppler factor
Unknown
Orbital elements
Apogee altitude
1,252.187 km
Perigee altitude
972.887 km
Semi-major axis
7,490.674 km
Eccentricity
0.01864
Inclination
82.6022°
RAAN
183.0039°
Arg. of periapsis
219.2413°
True anomaly
140.8715°
Mean anomaly
139.5086°
Eccentric anomaly
140.19246°
Mean motion
3.34782 °/min
Orbital period
107.53 mins
BSTAR
0.00013802
Loading maneuver chart data...
Computing Atmospheric mass density...
Loading historical data...
Loading historical data...
Loading historical data...
Loading historical data...
Loading historical data...
Loading historical data...
Loading historical data...

Documentation

Showing up to 5 results
|